DW7673 Weather Reports


Display with metric or nautical units.
time (UTC)temp
F
wind
direction
speed
MPH
gust
MPH
rain 1hr
in
rain 24hr
in
rain mn
in
humidity
%
barometer
mb
20181218172301 58 169 0.0 2.0 0.00 0.00 0.00 55 1021.7
20181218171801 57 115 0.0 1.0 0.00 0.00 0.00 56 1021.8
20181218171302 57 117 0.0 1.0 0.00 0.00 0.00 56 1021.8
20181218170801 56 128 0.0 1.0 0.00 0.00 0.00 56 1021.8
20181218170301 56 125 0.0 2.0 0.00 0.00 0.00 57 1021.8
20181218165801 56 132 0.0 1.0 0.00 0.00 0.00 58 1021.8
20181218165302 56 125 0.0 1.0 0.00 0.00 0.00 58 1021.8
20181218164801 56 179 0.0 1.0 0.00 0.00 0.00 59 1021.8
20181218164301 55 121 0.0 3.0 0.00 0.00 0.00 60 1021.8
20181218163802 55 121 0.0 1.0 0.00 0.00 0.00 60 1021.8
20181218163302 54 130 0.0 2.0 0.00 0.00 0.00 61 1021.8
20181218162801 54 124 1.0 3.0 0.00 0.00 0.00 61 1021.7
20181218162302 54 125 0.0 1.0 0.00 0.00 0.00 61 1021.6
20181218161801 55 126 0.0 3.0 0.00 0.00 0.00 61 1021.5
20181218161302 55 131 0.0 1.0 0.00 0.00 0.00 62 1021.3
20181218160801 54 127 0.0 1.0 0.00 0.00 0.00 63 1021.2
20181218160301 54 158 0.0 0.0 0.00 0.00 0.00 63 1021.3
20181218155801 54 123 0.0 1.0 0.00 0.00 0.00 64 1021.3
20181218155302 53 134 0.0 0.0 0.00 0.00 0.00 66 1021.1
20181218154802 53 135 0.0 0.0 0.00 0.00 0.00 65 1021.1
20181218154302 52 239 0.0 0.0 0.00 0.00 0.00 67 1021.0
20181218153801 51 239 0.0 0.0 0.00 0.00 0.00 69 1021.0
20181218153301 50 239 0.0 0.0 0.00 0.00 0.00 72 1021.0
20181218152802 48 239 0.0 0.0 0.00 0.00 0.00 75 1020.9
20181218152302 47 239 0.0 0.0 0.00 0.00 0.00 77 1020.9
20181218151802 46 239 0.0 0.0 0.00 0.00 0.00 78 1020.8
20181218151302 45 239 0.0 0.0 0.00 0.00 0.00 79 1020.8
20181218150801 44 239 0.0 0.0 0.00 0.00 0.00 79 1020.7
20181218150302 44 239 0.0 0.0 0.00 0.00 0.00 79 1020.6
20181218145802 44 239 0.0 0.0 0.00 0.00 0.00 79 1020.8
20181218145302 44 239 0.0 0.0 0.00 0.00 0.00 79 1020.5
20181218144802 44 239 0.0 0.0 0.00 0.00 0.00 80 1020.4
20181218144302 43 111 0.0 1.0 0.00 0.00 0.00 80 1020.4
20181218143802 43 149 0.0 0.0 0.00 0.00 0.00 80 1020.6
20181218143301 43 236 0.0 0.0 0.00 0.00 0.00 80 1020.3
20181218142802 43 242 0.0 0.0 0.00 0.00 0.00 79 1020.3
20181218142301 43 242 0.0 0.0 0.00 0.00 0.00 80 1020.2
20181218141801 43 249 0.0 0.0 0.00 0.00 0.00 80 1020.5
20181218141302 43 177 0.0 0.0 0.00 0.00 0.00 80 1020.1
20181218140802 43 186 0.0 0.0 0.00 0.00 0.00 80 1020.0
20181218140301 43 186 0.0 0.0 0.00 0.00 0.00 80 1019.9
20181218135802 43 186 0.0 0.0 0.00 0.00 0.00 79 1020.1
20181218135302 43 186 0.0 0.0 0.00 0.00 0.00 79 1019.8
20181218134802 43 186 0.0 0.0 0.00 0.00 0.00 78 1019.6
20181218134302 44 186 0.0 0.0 0.00 0.00 0.00 78 1019.5
20181218133802 44 186 0.0 0.0 0.00 0.00 0.00 77 1019.5
20181218133302 44 186 0.0 0.0 0.00 0.00 0.00 77 1019.7
20181218132802 45 186 0.0 0.0 0.00 0.00 0.00 76 1019.4
20181218132301 45 186 0.0 0.0 0.00 0.00 0.00 77 1019.3
20181218131802 45 186 0.0 0.0 0.00 0.00 0.00 76 1019.3
20181218131302 45 186 0.0 0.0 0.00 0.00 0.00 76 1019.5
20181218130802 45 186 0.0 0.0 0.00 0.00 0.00 76 1019.3
20181218130302 45 186 0.0 0.0 0.00 0.00 0.00 76 1019.2
20181218125802 45 186 0.0 0.0 0.00 0.00 0.00 76 1019.2
20181218125302 45 186 0.0 0.0 0.00 0.00 0.00 75 1019.2
20181218124802 45 186 0.0 0.0 0.00 0.00 0.00 76 1019.5
20181218124302 44 186 0.0 0.0 0.00 0.00 0.00 75 1019.1
20181218123802 45 186 0.0 0.0 0.00 0.00 0.00 75 1019.1
20181218123302 45 186 0.0 0.0 0.00 0.00 0.00 75 1018.9
20181218122802 45 186 0.0 0.0 0.00 0.00 0.00 74 1018.9
20181218122302 45 186 0.0 0.0 0.00 0.00 0.00 75 1019.2
20181218121802 45 186 0.0 0.0 0.00 0.00 0.00 75 1018.9
20181218121302 45 186 0.0 0.0 0.00 0.00 0.00 74 1018.8
20181218120802 45 186 0.0 0.0 0.00 0.00 0.00 75 1018.8
20181218120302 45 186 0.0 0.0 0.00 0.00 0.00 74 1019.1
20181218115802 45 186 0.0 0.0 0.00 0.00 0.00 74 1019.0
20181218115302 46 186 0.0 0.0 0.00 0.00 0.00 74 1018.8
20181218114802 45 186 0.0 0.0 0.00 0.00 0.00 75 1018.8
20181218114302 45 186 0.0 0.0 0.00 0.00 0.00 75 1018.9
20181218113802 45 186 0.0 0.0 0.00 0.00 0.00 74 1018.9
20181218113302 45 186 0.0 0.0 0.00 0.00 0.00 74 1019.2
20181218112802 45 186 0.0 0.0 0.00 0.00 0.00 74 1018.9
20181218112306 45 186 0.0 0.0 0.00 0.00 0.00 74 1018.9
20181218111803 46 186 0.0 0.0 0.00 0.00 0.00 73 1019.0
20181218111302 46 186 0.0 0.0 0.00 0.00 0.00 73 1019.0
20181218110802 46 186 0.0 0.0 0.00 0.00 0.00 73 1019.2
20181218110302 46 186 0.0 0.0 0.00 0.00 0.00 73 1019.4
20181218105802 46 186 0.0 0.0 0.00 0.00 0.00 72 1019.2
20181218105305 46 186 0.0 0.0 0.00 0.00 0.00 72 1019.1
20181218104802 46 186 0.0 0.0 0.00 0.00 0.00 72 1019.1
20181218104304 46 186 0.0 0.0 0.00 0.00 0.00 72 1019.2
20181218103803 47 186 0.0 0.0 0.00 0.00 0.00 71 1019.5
20181218103302 47 186 0.0 0.0 0.00 0.00 0.00 70 1019.2
20181218102803 47 186 0.0 0.0 0.00 0.00 0.00 70 1019.2
20181218102305 48 186 0.0 0.0 0.00 0.00 0.00 69 1019.2
20181218101802 48 186 0.0 0.0 0.00 0.00 0.00 69 1019.1
20181218101302 48 186 0.0 0.0 0.00 0.00 0.00 69 1019.0
20181218100802 48 186 0.0 0.0 0.00 0.00 0.00 69 1019.5
20181218100302 48 186 0.0 0.0 0.00 0.00 0.00 68 1019.2
20181218095802 48 186 0.0 0.0 0.00 0.00 0.00 68 1019.3
20181218095305 48 186 0.0 0.0 0.00 0.00 0.00 67 1019.4
20181218094802 49 186 0.0 0.0 0.00 0.00 0.00 67 1019.4
20181218094302 49 186 0.0 0.0 0.00 0.00 0.00 67 1019.4
20181218093803 49 186 0.0 0.0 0.00 0.00 0.00 66 1019.6
20181218093302 49 186 0.0 0.0 0.00 0.00 0.00 66 1019.6
20181218092802 50 186 0.0 0.0 0.00 0.00 0.00 65 1019.5
20181218092302 50 186 0.0 0.0 0.00 0.00 0.00 64 1019.5
20181218091802 50 186 0.0 0.0 0.00 0.00 0.00 64 1019.6
20181218091302 50 186 0.0 0.0 0.00 0.00 0.00 65 1019.6
20181218090802 50 186 0.0 0.0 0.00 0.00 0.00 64 1019.6
20181218090302 50 186 0.0 0.0 0.00 0.00 0.00 63 1019.5
20181218085802 50 186 0.0 0.0 0.00 0.00 0.00 64 1019.7
20181218085302 50 186 0.0 0.0 0.00 0.00 0.00 66 1019.4
20181218084802 49 155 0.0 0.0 0.00 0.00 0.00 66 1019.4
20181218084303 49 155 0.0 0.0 0.00 0.00 0.00 65 1019.4
20181218083803 49 155 0.0 0.0 0.00 0.00 0.00 65 1019.4
20181218083302 50 127 0.0 0.0 0.00 0.00 0.00 65 1019.3
20181218082803 50 93 0.0 0.0 0.00 0.00 0.00 64 1019.3
20181218082305 50 94 0.0 0.0 0.00 0.00 0.00 64 1019.4
20181218081803 50 94 0.0 0.0 0.00 0.00 0.00 64 1019.6
20181218081303 50 94 0.0 0.0 0.00 0.00 0.00 64 1019.5
20181218080802 50 94 0.0 6.0 0.00 0.00 0.00 63 1019.5
20181218080303 50 93 0.0 0.0 0.00 0.00 0.00 63 1019.5
20181218075803 51 94 0.0 0.0 0.00 0.00 0.00 63 1019.5
20181218075302 51 94 0.0 0.0 0.00 0.00 0.00 63 1019.5
20181218074802 51 93 0.0 0.0 0.00 0.00 0.00 63 1019.5
20181218074302 51 94 0.0 0.0 0.00 0.00 0.00 62 1019.5
20181218073803 51 94 0.0 0.0 0.00 0.00 0.00 61 1019.5
20181218073302 51 93 0.0 0.0 0.00 0.00 0.00 61 1019.5
20181218072803 52 94 0.0 0.0 0.00 0.00 0.00 61 1019.5
20181218072305 52 94 0.0 0.0 0.00 0.00 0.00 60 1019.5
20181218071802 52 94 0.0 0.0 0.00 0.00 0.00 58 1019.5
20181218071302 53 94 0.0 0.0 0.00 0.00 0.00 58 1019.5
20181218070833 53 94 0.0 0.0 0.00 0.00 0.00 58 1019.5
20181218070302 53 94 0.0 0.0 0.00 0.00 0.00 58 1019.5
20181218065803 52 107 0.0 0.0 0.00 0.00 0.00 58 1019.4
20181218065303 53 107 0.0 0.0 0.00 0.00 0.00 58 1019.4
20181218064803 53 107 0.0 0.0 0.00 0.00 0.00 59 1019.3
20181218064302 52 107 0.0 0.0 0.00 0.00 0.00 59 1019.3
20181218063803 52 107 0.0 0.0 0.00 0.00 0.00 59 1019.4
20181218063303 53 107 0.0 0.0 0.00 0.00 0.00 59 1019.4
20181218062803 53 107 0.0 0.0 0.00 0.00 0.00 58 1019.4
20181218062302 54 107 0.0 0.0 0.00 0.00 0.00 58 1019.4
20181218061802 54 107 0.0 0.0 0.00 0.00 0.00 57 1019.4
20181218061303 54 107 0.0 0.0 0.00 0.00 0.00 58 1019.3
20181218060802 54 107 0.0 0.0 0.00 0.00 0.00 57 1019.3
20181218060303 54 107 0.0 0.0 0.00 0.00 0.00 57 1019.3
20181218055803 55 107 0.0 0.0 0.00 0.00 0.00 58 1019.3
20181218055302 55 107 0.0 0.0 0.00 0.00 0.00 57 1019.3
20181218054803 54 107 0.0 0.0 0.00 0.00 0.00 57 1019.2
20181218054303 54 107 0.0 0.0 0.00 0.00 0.00 57 1019.1
20181218053803 55 107 0.0 0.0 0.00 0.00 0.00 57 1019.1
20181218053303 55 107 0.0 0.0 0.00 0.00 0.00 56 1019.1
20181218052803 55 107 0.0 0.0 0.00 0.00 0.00 55 1019.1
20181218052302 56 108 0.0 0.0 0.00 0.00 0.00 56 1019.2
20181218051802 56 107 0.0 0.0 0.00 0.00 0.00 55 1019.1
20181218051303 56 107 0.0 0.0 0.00 0.00 0.00 55 1019.0
20181218050803 56 107 0.0 0.0 0.00 0.00 0.00 54 1019.0
20181218050303 57 107 0.0 0.0 0.00 0.00 0.00 54 1019.0
20181218045802 57 107 0.0 0.0 0.00 0.00 0.00 53 1018.9
20181218045302 57 107 0.0 0.0 0.00 0.00 0.00 54 1018.9
20181218044803 57 107 0.0 0.0 0.00 0.00 0.00 54 1018.9
20181218044303 58 107 0.0 0.0 0.00 0.00 0.00 53 1018.9
20181218043802 58 108 0.0 0.0 0.00 0.00 0.00 52 1018.9
20181218043302 59 107 0.0 0.0 0.00 0.00 0.00 52 1018.9
20181218042802 59 107 0.0 0.0 0.00 0.00 0.00 52 1019.0
20181218042303 59 107 0.0 0.0 0.00 0.00 0.00 52 1018.9
20181218041802 59 107 0.0 0.0 0.00 0.00 0.00 53 1018.8
20181218041303 58 107 0.0 0.0 0.00 0.00 0.00 54 1018.8
20181218040803 58 107 0.0 0.0 0.00 0.00 0.00 55 1018.9
20181218040303 59 107 0.0 0.0 0.00 0.00 0.00 54 1018.9
20181218035803 59 107 0.0 0.0 0.00 0.00 0.00 54 1018.8
20181218035302 59 347 0.0 0.0 0.00 0.00 0.00 54 1018.8
20181218034803 59 347 0.0 0.0 0.00 0.00 0.00 54 1018.8
20181218034303 59 347 0.0 0.0 0.00 0.00 0.00 53 1018.8
20181218033803 60 347 0.0 0.0 0.00 0.00 0.00 52 1018.8
20181218033303 60 347 0.0 0.0 0.00 0.00 0.00 52 1018.9
20181218032803 60 307 0.0 0.0 0.00 0.00 0.00 51 1018.9
20181218032302 60 307 0.0 0.0 0.00 0.00 0.00 51 1019.0
20181218031803 60 307 0.0 0.0 0.00 0.00 0.00 51 1019.0
20181218031303 61 307 0.0 0.0 0.00 0.00 0.00 49 1019.0
20181218030803 61 307 0.0 0.0 0.00 0.00 0.00 49 1018.9
20181218030303 61 307 0.0 0.0 0.00 0.00 0.00 50 1019.0
20181218025802 61 307 0.0 0.0 0.00 0.00 0.00 50 1018.9
20181218025303 61 307 0.0 0.0 0.00 0.00 0.00 50 1018.9
20181218024803 61 305 0.0 0.0 0.00 0.00 0.00 51 1018.9
20181218024303 61 302 0.0 0.0 0.00 0.00 0.00 51 1019.0
20181218023803 60 302 0.0 0.0 0.00 0.00 0.00 52 1019.0
20181218023303 60 284 0.0 0.0 0.00 0.00 0.00 55 1019.0
20181218022803 60 284 0.0 0.0 0.00 0.00 0.00 55 1018.9
20181218022303 60 284 0.0 0.0 0.00 0.00 0.00 57 1018.9
20181218021803 60 284 0.0 0.0 0.00 0.00 0.00 57 1019.0
20181218021302 60 283 0.0 0.0 0.00 0.00 0.00 57 1018.9
20181218020803 60 283 0.0 0.0 0.00 0.00 0.00 56 1018.9
20181218020303 61 284 0.0 0.0 0.00 0.00 0.00 56 1019.0
20181218015803 61 284 0.0 0.0 0.00 0.00 0.00 56 1019.0
20181218015303 61 284 0.0 0.0 0.00 0.00 0.00 55 1019.1
20181218014803 62 284 0.0 0.0 0.00 0.00 0.00 54 1019.0
20181218014303 62 284 0.0 0.0 0.00 0.00 0.00 52 1019.1
20181218013803 62 284 0.0 0.0 0.00 0.00 0.00 51 1019.1
20181218013303 63 284 0.0 0.0 0.00 0.00 0.00 49 1019.1
20181218012803 63 283 0.0 1.0 0.00 0.00 0.00 47 1019.2
20181218012302 64 287 0.0 1.0 0.00 0.00 0.00 46 1019.3
20181218011803 64 211 0.0 2.0 0.00 0.00 0.00 46 1019.4
20181218011303 64 248 1.0 3.0 0.00 0.00 0.00 44 1019.5
20181218010803 64 249 1.0 2.0 0.00 0.00 0.00 43 1019.4
20181218010303 64 218 0.0 1.0 0.00 0.00 0.00 44 1019.4
20181218005803 64 255 0.0 2.0 0.00 0.00 0.00 43 1019.2
20181218005303 64 253 0.0 0.0 0.00 0.00 0.00 42 1019.0
20181218004803 64 253 0.0 1.0 0.00 0.00 0.00 41 1019.0
20181218004303 65 246 0.0 1.0 0.00 0.00 0.00 41 1018.9
20181218003803 65 124 0.0 0.0 0.00 0.00 0.00 41 1018.7
20181218003303 65 124 0.0 0.0 0.00 0.00 0.00 40 1018.6
20181218002803 65 124 0.0 0.0 0.00 0.00 0.00 40 1018.6
20181218002303 65 124 0.0 0.0 0.00 0.00 0.00 39 1018.5
20181218001803 65 204 0.0 0.0 0.00 0.00 0.00 39 1018.6
20181218001303 65 204 0.0 0.0 0.00 0.00 0.00 38 1018.6
20181218000803 65 204 0.0 0.0 0.00 0.00 0.00 38 1018.5
20181218000303 66 204 0.0 0.0 0.00 0.00 0.00 38 1018.6
20181217235803 66 204 0.0 0.0 0.00 0.00 0.00 38 1018.6
20181217235303 66 204 0.0 0.0 0.00 0.00 0.00 37 1018.6
20181217234803 66 204 0.0 0.0 0.00 0.00 0.00 38 1018.6
20181217234303 66 204 0.0 0.0 0.00 0.00 0.00 37 1018.5
20181217233803 67 204 0.0 0.0 0.00 0.00 0.00 36 1018.6
20181217233303 67 204 0.0 0.0 0.00 0.00 0.00 36 1018.5
20181217232803 67 204 0.0 0.0 0.00 0.00 0.00 35 1018.6
20181217232303 67 204 0.0 0.0 0.00 0.00 0.00 35 1018.5
20181217231803 67 204 0.0 0.0 0.00 0.00 0.00 35 1018.5
20181217231303 67 204 0.0 0.0 0.00 0.00 0.00 35 1018.4
20181217230803 67 204 0.0 0.0 0.00 0.00 0.00 35 1018.4
20181217230303 67 204 0.0 0.0 0.00 0.00 0.00 34 1018.5
20181217225803 68 204 0.0 0.0 0.00 0.00 0.00 34 1018.5
20181217225303 68 198 0.0 0.0 0.00 0.00 0.00 35 1018.5
20181217224803 68 197 0.0 0.0 0.00 0.00 0.00 34 1018.5
20181217224303 68 196 0.0 1.0 0.00 0.00 0.00 35 1018.4
20181217223803 68 241 0.0 1.0 0.00 0.00 0.00 35 1018.6
20181217223303 68 195 0.0 2.0 0.00 0.00 0.00 35 1018.6
20181217222803 68 234 0.0 1.0 0.00 0.00 0.00 36 1018.6
20181217222303 68 256 0.0 3.0 0.00 0.00 0.00 35 1018.6
20181217221804 68 218 0.0 1.0 0.00 0.00 0.00 34 1018.5
20181217221303 68 168 0.0 1.0 0.00 0.00 0.00 35 1018.5
20181217220804 68 208 0.0 2.0 0.00 0.00 0.00 35 1018.6
20181217220303 68 229 0.0 1.0 0.00 0.00 0.00 35 1018.7
20181217215803 68 236 1.0 2.0 0.00 0.00 0.00 34 1018.7
20181217215304 69 232 0.0 1.0 0.00 0.00 0.00 34 1018.6
20181217214802 69 121 0.0 1.0 0.00 0.00 0.00 34 1018.7
20181217214303 69 235 0.0 2.0 0.00 0.00 0.00 34 1018.6
20181217213803 69 161 0.0 2.0 0.00 0.00 0.00 34 1018.7
20181217213303 69 169 0.0 1.0 0.00 0.00 0.00 35 1018.9
20181217212803 69 241 1.0 5.0 0.00 0.00 0.00 34 1018.9
20181217212304 69 176 0.0 3.0 0.00 0.00 0.00 34 1018.8
20181217211803 69 231 1.0 5.0 0.00 0.00 0.00 34 1018.8
20181217211303 69 255 0.0 2.0 0.00 0.00 0.00 35 1018.8
20181217210804 69 248 1.0 3.0 0.00 0.00 0.00 34 1018.8
20181217210303 69 271 0.0 1.0 0.00 0.00 0.00 34 1018.8
20181217205803 69 34 0.0 1.0 0.00 0.00 0.00 33 1018.8
20181217205303 69 118 0.0 3.0 0.00 0.00 0.00 33 1019.0
20181217204803 70 152 1.0 3.0 0.00 0.00 0.00 32 1019.1
20181217204303 71 226 2.0 6.0 0.00 0.00 0.00 32 1019.1
20181217203803 71 64 0.0 1.0 0.00 0.00 0.00 32 1019.1
20181217203303 71 340 0.0 1.0 0.00 0.00 0.00 32 1019.2
20181217202803 71 198 2.0 5.0 0.00 0.00 0.00 31 1019.3
20181217202303 71 150 1.0 3.0 0.00 0.00 0.00 32 1019.3
20181217201804 70 138 1.0 2.0 0.00 0.00 0.00 32 1019.3
20181217201303 71 200 0.0 3.0 0.00 0.00 0.00 31 1019.4
20181217200804 71 222 1.0 3.0 0.00 0.00 0.00 31 1019.4
20181217200304 71 124 0.0 1.0 0.00 0.00 0.00 32 1019.5
20181217195803 70 191 0.0 1.0 0.00 0.00 0.00 32 1019.6
20181217195303 69 318 0.0 0.0 0.00 0.00 0.00 32 1019.6
20181217194804 70 83 0.0 2.0 0.00 0.00 0.00 31 1019.6
20181217194303 70 189 1.0 3.0 0.00 0.00 0.00 31 1019.7
20181217193803 70 129 1.0 3.0 0.00 0.00 0.00 32 1019.8
20181217193303 69 44 0.0 1.0 0.00 0.00 0.00 31 1020.0
20181217192803 69 118 0.0 2.0 0.00 0.00 0.00 32 1020.1
20181217192303 69 57 0.0 2.0 0.00 0.00 0.00 33 1020.2
20181217191803 68 158 0.0 2.0 0.00 0.00 0.00 34 1020.3
20181217191303 68 227 1.0 2.0 0.00 0.00 0.00 33 1020.4
20181217190804 68 218 0.0 2.0 0.00 0.00 0.00 34 1020.6
20181217190303 68 234 0.0 2.0 0.00 0.00 0.00 33 1020.7
20181217185803 68 255 0.0 3.0 0.00 0.00 0.00 33 1020.9
20181217185304 68 186 1.0 2.0 0.00 0.00 0.00 33 1020.9
20181217184804 67 142 0.0 2.0 0.00 0.00 0.00 33 1021.1
20181217184304 68 158 0.0 1.0 0.00 0.00 0.00 33 1021.2
20181217183803 67 230 0.0 2.0 0.00 0.00 0.00 34 1021.3
20181217183303 67 143 0.0 2.0 0.00 0.00 0.00 33 1021.3
20181217182804 66 224 1.0 3.0 0.00 0.00 0.00 33 1021.3
20181217182304 67 220 0.0 2.0 0.00 0.00 0.00 33 1021.3
20181217181804 67 162 0.0 1.0 0.00 0.00 0.00 33 1021.3
20181217181304 67 190 0.0 2.0 0.00 0.00 0.00 32 1021.3
20181217180804 67 199 1.0 2.0 0.00 0.00 0.00 32 1021.4
20181217180304 67 153 0.0 1.0 0.00 0.00 0.00 31 1021.5
20181217175804 67 100 0.0 1.0 0.00 0.00 0.00 31 1021.6
20181217175303 67 351 0.0 1.0 0.00 0.00 0.00 30 1021.5
20181217174803 67 97 0.0 1.0 0.00 0.00 0.00 30 1021.7
20181217174303 66 328 0.0 1.0 0.00 0.00 0.00 32 1021.9
20181217173803 66 94 0.0 0.0 0.00 0.00 0.00 32 1021.9
20181217173304 65 94 0.0 1.0 0.00 0.00 0.00 31 1021.8
20181217172803 66 79 0.0 1.0 0.00 0.00 0.00 30 1022.0